Back to catalog

TIROS 9

AliveWeatherPO
NORAD 978·PAYLOAD·🇺🇸 United States

Launched Jan 22, 1965 from Cape Canaveral Space Force Station

Loading…

Next Passes (next 24 hours)

TLE

FreshSource: Space-Track

Epoch: Sep 14, 2026, 14:11 UTC

1 00978U 65004A   26257.59118332 -.00000127  00000-0 -14117-3 0  9992
2 00978  96.4135   4.0648 1157518 201.6703 153.1321 12.11154862722438

Track TIROS 9 in real time with AllMySat

Download on the App Store